NOAA 16 DEB

Satellite information

Favourite Embed

Satellite Type and Status

DEBRISIN ORBIT

Key statistics

Satellite NOAA 16 DEB at a glance.

Uptime

9055

Days in orbit

Revolutions

≈ 14.4

Per day

Orbit

SSO

Sun Synchronous Orbit

Inclination

98.9

Latest

Satellite identification and parameters

Extended collection of information and parameters for NOAA 16 DEB.

Object identification

Identified? True

Debris? True

Object name: NOAA 16 DEB

International designator: 2000-055JS

Object number (NORAD): 41373

Object ID (CCSDS): 41373

Country: UNITED STATES OF AMERICA (US)

Current information (Y/N): Y

RCS size: SMALL

Orbital parameters

Period: 99.946 minutes

Inclination: 98.9064 deg

SMA: 7134.053 km

Apoapsis: 772.532 km

Periapsis: 739.303 km

RAAN: 329.9719 deg

Eccentricy: 0.0023289

Argument of periapsis: 103.067 deg

Mean anomaly: 257.3119 deg

Mean motion: 14.40782006 rev/day

Mean motion (dot): 0.00004334 rev/day2

B* drag term: 0.001364 1/REarth

Two-line elements (TLE)

Creation date: July 6, 2025, 10:46 p.m.

Reference frame: TEME

Reference center: EARTH

Epoch: July 6, 2025, 8:28 p.m. UTC

TLE line 0: 0 NOAA 16 DEB

TLE line 1: 1 41373U 00055JS 25187.85319130 .00004334 00000-0 13640-2 0 9991

TLE line 2: 2 41373 98.9064 329.9719 0023289 103.0670 257.3119 14.40782006491281

Live tracking on map

Real-time ground track for satellite NOAA 16 DEB.

In-orbit conjunctions

A list of the most updated potential collisions computed for object NOAA 16 DEB.

Target Orbit TCA Probability of collision Miss distance Type
COSMOS 2056 LEO 2025-01-22 18:21:34 0.00151416 62.0 (m) PAYLOAD
CZ-6A DEB LEO 2025-01-12 21:19:27 0.000125312 517.0 (m) DEBRIS
SL-14 DEB LEO 2024-08-02 15:26:53 0.0001240862 166.0 (m) DEBRIS
METEOR 2-10 LEO 2024-06-05 17:10:47 0.0004744052 401.0 (m) PAYLOAD

Associated space launch

The NOAA K, L and M POES satellites begin the fifth generation of improved environmental monitoring in support of NOAA missions. The instrument payload has significant improvements and additions/deletions. The instrument changes have effected the spacecraft subsystems and data formats.

NOAA 16 DEB was lifted into orbit during the mission ‘Titan II SLV | NOAA 16’, on board a Titan II SLV space rocket.

The launch took place on Sept. 21, 2000, 10:22 a.m. from Space Launch Complex 4W.

For more information about the launch, click the button.

Launch to space Titan II SLV | NOAA 16
Titan II SLV | NOAA 16

Agency: N/A

Status: Launch Successful

Launch date: Sept. 21, 2000, 10:22 a.m. UTC

Rocket: Titan II SLV

Launch pad: Space Launch Complex 4W

Location: Vandenberg SFB, CA, USA

...

Latest news about this satellite

There are no fresh news available about this satellite. Check back as we update our databases every day.


Newsletter sign-up

Weekly statistics, charts and insights to help you stay on top of the space industry.